Simultaneous Nadir Overpasses (SNOs) Predictions

Prediction of SNOs between GOES-16 and METOP-B Satellite Orbit:

Table of predicted SNOs for the next 14.0 days since TLE Epoch: 3/9/2024
Index Date Time (GOES-16) GOES-16 Lat,Lon METOP-B Lat,Lon Distance(km) Time Diff (sec)
1 03/09/2024 14:40:04 0.05, -75.21 0.73, -78.34 356.25 80
2 03/10/2024 14:16:45 0.05, -75.22 -0.34, -73.34 212.62 80
3 03/12/2024 02:38:26 -0.05, -75.21 -0.68, -77.96 313.67 80
4 03/13/2024 02:15:07 -0.05, -75.22 0.46, -72.97 255.49 80
5 03/14/2024 14:36:41 0.05, -75.25 0.53, -77.56 262.03 80
6 03/15/2024 14:13:21 0.04, -75.26 -0.55, -72.56 307.36 80
7 03/17/2024 02:35:02 -0.04, -75.26 -0.45, -77.18 218.18 80
8 03/18/2024 02:11:43 -0.04, -75.27 0.63, -72.18 351.48 80
9 03/19/2024 14:33:16 0.04, -75.32 0.35, -76.77 165.12 80
10 03/20/2024 14:09:57 0.03, -75.34 -0.74, -71.78 405.15 80
11 03/22/2024 02:31:38 -0.03, -75.35 -0.25, -76.39 118.81 80
12 03/23/2024 02:08:19 -0.03, -75.37 0.84, -71.40 451.99 80
